Temp
63 63 63 63 65 68 67 65 60 60 59 60 60 60 60 60 60 61 60 65 68 71 73 74 75 76 77 76 76 75 74 73 73 74 73 73 72 72 72 73 73 73 73
63 64 66 65 64 59 59 58 57 56 56 56 58 58 58 58 58 58 59 60 66 68 71 73 74 75 75 76 77 76 75 75 74 73 73 72 72 72 72 71 72 72 73
68 65 63 58 57 57 57 56 56 55 54 56 53 56 56 55 56 57 58 59 59 63 67 71 71 72 72 73 74 75 75 73 73 73 73 73 72 72 72 71 71 71 71
62 60 57 55 55 55 55 54 53 52 51 50 50 52 53 53 54 56 57 57 57 59 62 66 68 69 70 71 72 72 72 72 72 72 72 72 71 72 72 72 72 71 70
59 56 55 54 54 53 52 52 51 49 48 49 52 52 52 50 52 57 53 55 56 56 57 62 63 64 66 67 69 70 70 70 71 71 70 70 71 70 71 71 71 71 71
56 54 53 53 53 51 50 49 49 49 48 47 53 53 50 50 50 54 53 56 54 54 54 54 52 56 62 65 66 67 68 69 69 68 68 68 68 68 68 69 70 70 70
55 53 51 51 51 49 47 48 47 46 46 46 44 46 46 48 49 55 51 53 52 56 53 56 55 55 54 60 61 64 65 66 66 66 66 66 67 67 67 67 68 69 68
54 54 50 49 48 48 47 46 45 44 44 44 42 40 39 43 48 53 50 52 51 51 53 55 52 52 52 49 53 60 61 63 63 64 65 65 65 66 66 66 66 67 66
52 51 50 48 47 46 44 44 43 43 41 43 44 42 37 35 43 45 48 47 51 46 51 48 53 52 50 51 50 54 58 60 61 63 63 63 63 64 64 64 65 65 65
50 50 49 48 46 45 44 44 46 42 42 40 42 47 42 41 36 36 42 48 44 49 46 46 48 47 51 50 53 54 57 57 60 61 61 61 62 62 63 63 63 64 64
49 49 48 46 45 44 43 43 42 41 41 40 39 39 39 39 39 36 35 38 45 47 48 47 43 48 48 49 47 50 56 56 57 58 59 59 60 60 61 61 62 62 61
46 47 47 45 44 43 43 42 42 41 40 40 40 39 38 37 38 37 36 37 38 43 43 45 43 46 45 45 50 53 53 54 54 55 56 57 57 57 58 58 59 59 60
44 44 44 43 43 43 43 42 41 40 40 38 38 38 38 38 39 39 38 36 36 40 41 43 42 42 47 43 44 50 51 51 52 53 54 55 54 55 55 56 57 57 57
44 44 43 43 43 43 42 41 40 39 40 37 37 37 37 38 38 38 37 35 32 35 39 37 41 40 41 41 46 49 45 49 50 51 52 52 52 52 52 53 54 55 55
48 43 43 42 41 41 41 40 38 38 38 37 36 36 35 36 37 38 38 37 34 28 31 37 37 41 39 41 45 45 43 47 48 49 49 49 49 50 51 52 52 53 52
43 42 42 41 40 40 40 39 37 38 37 37 39 35 35 36 37 37 37 36 36 33 28 37 38 39 40 43 43 43 42 45 46 47 47 48 48 49 49 50 50 49 50
42 41 41 40 39 39 39 37 37 37 37 36 35 35 34 35 36 36 36 36 35 34 30 35 38 39 37 37 39 40 40 39 40 45 46 46 47 47 47 48 48 49 49
41 40 40 40 39 39 38 36 36 36 35 34 34 33 33 38 34 34 34 34 34 34 32 30 34 34 35 37 37 34 38 41 39 42 44 45 45 46 46 46 47 47 46
40 40 40 39 39 38 37 37 36 35 35 34 33 32 32 33 32 33 33 33 34 37 35 33 32 35 35 35 33 35 35 35 38 41 43 43 44 44 44 45 43 45 45
39 39 39 38 37 37 37 37 37 35 34 35 34 33 32 33 32 33 35 36 36 33 33 32 30 31 32 33 32 30 29 32 32 37 39 40 41 42 43 43 43 43 43
39 38 37 36 36 37 42 40 39 36 34 32 32 33 34 36 40 40 38 35 35 33 31 30 30 30 28 29 28 29 28 29 31 32 32 33 34 34 35 38 39 40 41
36 36 34 34 33 39 43 45 43 38 34 32 30 32 33 37 36 41 40 41 40 35 31 30 28 27 27 28 28 28 28 26 23 33 30 30 33 31 33 34 39 40 41
34 33 33 32 32 32 43 43 43 38 33 32 31 32 33 37 36 33 36 39 39 39 36 33 28 27 27 28 28 27 26 25 25 29 28 25 30 28 32 35 38 39 40
33 32 32 31 30 35 41 42 41 34 31 30 31 31 31 31 32 36 35 33 32 31 31 33 32 32 31 32 31 31 27 27 27 29 30 22 28 26 30 31 36 38 39
31 30 31 30 29 30 39 40 39 33 32 31 31 31 32 33 37 40 33 30 30 30 36 37 36 36 36 36 35 29 25 23 21 24 29 25 25 25 27 28 31 36 38
30 31 31 30 33 29 36 39 38 34 30 30 31 32 36 36 39 37 34 30 25 27 30 30 28 30 31 31 34 30 26 21 21 20 27 23 24 25 23 29 29 31 32
MSLP
1013.35 1013.45 1013.55 1013.55 1013.40 1013.18 1013.20 1013.38 1013.38 1013.28 1013.12 1012.86 1012.63 1012.50 1012.34 1012.05 1011.68 1011.32 1011.06 1010.64 1010.32 1009.95 1009.73 1009.39 1008.98 1008.54 1008.14 1007.99 1008.04 1008.02 1007.98 1007.91 1007.91 1007.74 1007.73 1007.77 1007.70 1007.72 1007.70 1007.61 1007.60 1007.69 1007.88
1013.30 1013.58 1013.75 1013.90 1013.91 1013.78 1013.68 1013.72 1013.74 1013.68 1013.60 1013.34 1012.98 1012.63 1012.42 1012.10 1011.82 1011.43 1011.04 1010.74 1010.30 1010.10 1009.85 1009.42 1009.10 1008.67 1008.10 1007.78 1007.52 1007.42 1007.32 1007.27 1007.28 1007.36 1007.28 1007.16 1007.00 1006.97 1006.96 1006.91 1006.88 1006.88 1006.86
1013.51 1013.88 1014.12 1014.36 1014.42 1014.07 1013.90 1013.85 1013.79 1013.73 1013.75 1013.58 1013.32 1012.91 1012.47 1012.13 1011.89 1011.57 1011.23 1010.99 1010.72 1010.34 1010.05 1009.63 1009.37 1009.02 1008.73 1008.52 1008.12 1007.68 1007.41 1007.40 1007.32 1007.16 1006.94 1006.68 1006.49 1006.42 1006.31 1006.23 1006.19 1006.15 1006.08
1014.11 1014.26 1014.61 1014.82 1014.65 1014.43 1014.37 1014.38 1014.38 1014.33 1014.29 1014.13 1013.74 1013.15 1012.73 1012.53 1012.19 1011.82 1011.55 1011.28 1011.03 1010.76 1010.42 1010.05 1009.84 1009.39 1009.12 1008.75 1008.52 1008.20 1007.84 1007.54 1007.25 1006.94 1006.76 1006.54 1006.38 1006.07 1005.87 1005.70 1005.51 1005.43 1005.36
1014.41 1014.58 1015.01 1015.03 1014.91 1014.96 1014.94 1014.92 1014.83 1014.87 1014.90 1014.54 1013.95 1013.33 1012.76 1012.67 1012.45 1012.08 1011.99 1011.59 1011.29 1011.08 1010.74 1010.32 1010.06 1009.82 1009.51 1009.24 1008.86 1008.33 1007.96 1007.59 1007.23 1006.97 1006.93 1006.67 1006.29 1006.00 1005.71 1005.45 1005.16 1004.91 1004.77
1014.78 1015.03 1015.27 1015.34 1015.34 1015.43 1015.48 1015.38 1015.32 1015.09 1015.09 1014.94 1014.15 1013.49 1012.77 1012.66 1012.49 1012.32 1011.98 1011.66 1011.46 1011.27 1011.03 1010.72 1010.38 1009.94 1009.51 1009.13 1008.72 1008.46 1008.08 1007.47 1007.10 1006.99 1006.84 1006.62 1006.37 1006.17 1005.91 1005.53 1005.02 1004.65 1004.41
1015.21 1015.47 1015.73 1015.89 1015.90 1015.99 1016.07 1015.91 1015.70 1015.66 1015.33 1015.03 1014.57 1013.67 1012.92 1012.44 1012.39 1012.21 1012.02 1011.91 1011.70 1011.26 1011.00 1010.71 1010.49 1010.20 1009.93 1009.48 1009.17 1008.70 1008.30 1007.91 1007.45 1007.28 1006.88 1006.57 1006.28 1006.04 1005.78 1005.41 1004.97 1004.43 1004.23
1015.61 1015.81 1016.18 1016.40 1016.41 1016.36 1016.36 1016.28 1016.21 1016.11 1015.86 1015.47 1015.34 1014.65 1014.21 1013.34 1012.45 1012.71 1012.37 1012.10 1011.92 1011.64 1011.36 1010.91 1010.67 1010.24 1009.98 1009.79 1009.32 1008.84 1008.52 1007.93 1007.68 1007.18 1006.82 1006.43 1006.11 1005.74 1005.45 1005.23 1004.73 1004.28 1004.15
1016.03 1016.27 1016.46 1016.61 1016.77 1016.78 1016.85 1016.73 1016.51 1016.44 1016.36 1015.84 1015.52 1015.61 1015.43 1015.08 1013.88 1012.62 1012.47 1012.28 1012.05 1011.97 1011.71 1011.31 1010.72 1010.33 1010.02 1009.74 1009.40 1009.05 1008.62 1008.17 1007.77 1007.09 1006.70 1006.37 1005.98 1005.62 1005.26 1005.02 1004.54 1004.12 1003.83
1016.49 1016.58 1016.70 1016.83 1017.02 1017.12 1017.10 1016.97 1016.70 1016.52 1016.30 1016.33 1015.88 1015.77 1016.02 1015.89 1015.38 1013.48 1012.76 1012.43 1012.27 1011.98 1011.62 1011.13 1010.68 1010.36 1009.89 1009.59 1009.21 1008.95 1008.58 1008.18 1007.56 1007.12 1006.78 1006.34 1005.89 1005.40 1004.80 1004.40 1004.19 1003.56 1003.08
1016.81 1016.87 1016.97 1017.09 1017.27 1017.33 1017.24 1017.12 1016.87 1016.71 1016.57 1016.55 1016.51 1016.25 1015.93 1015.69 1015.51 1015.37 1013.37 1012.65 1012.21 1011.73 1011.30 1010.87 1010.55 1010.16 1009.71 1009.34 1009.12 1008.84 1008.36 1007.82 1007.72 1007.34 1006.89 1006.36 1005.79 1005.15 1004.58 1004.03 1003.31 1002.98 1002.73
1017.18 1017.21 1017.26 1017.33 1017.34 1017.40 1017.31 1017.20 1017.02 1016.78 1016.72 1016.65 1016.63 1016.52 1016.34 1016.15 1015.52 1015.02 1013.84 1012.90 1012.22 1011.60 1011.09 1010.75 1010.28 1009.89 1009.47 1009.17 1008.90 1008.46 1008.30 1008.06 1007.59 1007.11 1006.57 1005.92 1005.27 1004.74 1004.24 1003.57 1002.94 1002.46 1001.99
1017.47 1017.50 1017.47 1017.54 1017.54 1017.47 1017.31 1017.20 1017.08 1016.85 1016.72 1016.71 1016.59 1016.34 1016.02 1015.81 1015.46 1014.97 1014.26 1012.85 1011.70 1011.24 1010.71 1010.34 1009.97 1009.66 1009.28 1009.05 1008.86 1008.68 1008.28 1007.83 1007.42 1006.81 1006.10 1005.45 1004.82 1004.10 1003.50 1002.87 1002.23 1001.67 1001.44
1017.49 1017.54 1017.58 1017.60 1017.53 1017.37 1017.22 1017.12 1017.02 1016.84 1016.62 1016.50 1016.30 1016.05 1015.83 1015.50 1015.18 1014.87 1014.39 1013.54 1011.54 1010.79 1010.25 1009.87 1009.66 1009.36 1009.09 1008.90 1008.60 1008.37 1008.06 1007.63 1007.09 1006.38 1005.65 1004.87 1004.07 1003.49 1002.85 1002.20 1001.52 1000.89 1000.53
1017.42 1017.49 1017.55 1017.60 1017.47 1017.31 1017.24 1017.14 1016.97 1016.76 1016.48 1016.20 1016.05 1015.82 1015.66 1015.27 1014.94 1014.53 1013.99 1013.56 1012.79 1010.84 1009.37 1009.22 1009.15 1008.94 1008.74 1008.45 1008.03 1007.62 1007.25 1006.81 1006.31 1005.55 1004.92 1004.17 1003.40 1002.62 1001.89 1001.19 1000.60 999.96 999.77
1017.51 1017.58 1017.63 1017.52 1017.43 1017.32 1017.16 1017.00 1016.81 1016.54 1016.34 1016.06 1015.78 1015.67 1015.42 1015.06 1014.68 1014.21 1013.62 1013.10 1012.66 1011.91 1009.91 1009.16 1008.60 1008.46 1008.11 1007.67 1007.24 1006.73 1006.47 1006.10 1005.58 1004.85 1004.03 1003.22 1002.48 1001.64 1000.82 1000.23 999.61 999.41 998.87
1017.66 1017.66 1017.60 1017.53 1017.44 1017.17 1017.01 1016.86 1016.62 1016.31 1016.12 1015.83 1015.52 1015.35 1015.22 1014.87 1014.40 1013.88 1013.26 1012.66 1012.06 1011.59 1010.67 1008.45 1008.22 1007.72 1007.38 1007.03 1006.37 1006.01 1005.69 1005.36 1004.76 1003.98 1003.02 1002.08 1001.10 1000.36 999.76 999.11 998.61 998.08 997.55
1017.65 1017.67 1017.66 1017.50 1017.29 1017.10 1016.89 1016.68 1016.43 1016.07 1015.85 1015.59 1015.24 1015.12 1014.97 1014.48 1014.04 1013.50 1012.89 1012.22 1011.49 1010.87 1010.37 1009.15 1007.73 1007.33 1006.90 1006.22 1005.72 1005.41 1004.84 1004.20 1003.64 1002.80 1001.93 1000.88 1000.10 999.26 998.66 998.04 997.42 996.80 996.57
1017.75 1017.75 1017.65 1017.45 1017.25 1016.97 1016.69 1016.32 1016.10 1015.78 1015.41 1015.07 1014.90 1014.83 1014.53 1014.03 1013.53 1013.02 1012.35 1011.57 1010.86 1010.23 1009.67 1008.95 1007.47 1006.80 1005.91 1005.63 1005.28 1004.60 1003.90 1003.14 1002.57 1001.61 1000.86 1000.12 999.34 998.57 997.80 997.01 996.61 996.15 995.55
1017.82 1017.73 1017.59 1017.43 1017.21 1016.91 1016.47 1016.04 1015.71 1015.25 1014.91 1014.69 1014.50 1014.28 1013.97 1013.59 1013.09 1012.29 1011.48 1010.80 1010.26 1009.61 1008.86 1008.11 1007.22 1006.40 1005.72 1005.35 1004.90 1004.05 1002.73 1002.49 1001.41 1000.85 1000.18 999.52 998.78 997.96 997.02 996.53 995.85 995.24 994.76
1017.90 1017.82 1017.62 1017.38 1017.07 1016.75 1016.16 1015.69 1015.19 1014.82 1014.57 1014.32 1014.05 1013.76 1013.34 1012.84 1012.27 1011.61 1010.77 1010.25 1009.69 1008.93 1008.24 1007.50 1006.53 1005.63 1005.30 1004.66 1004.29 1003.51 1002.57 1001.37 1000.60 1000.44 999.50 998.40 997.84 997.16 996.54 995.90 995.20 994.45 993.79
1017.94 1017.81 1017.68 1017.45 1017.08 1016.63 1016.05 1015.39 1014.87 1014.40 1014.13 1013.98 1013.71 1013.27 1012.80 1012.28 1011.71 1011.01 1010.52 1009.72 1008.89 1007.96 1007.36 1006.77 1006.02 1005.42 1004.86 1004.33 1003.64 1002.82 1001.82 1000.59 999.55 999.60 998.56 997.27 997.27 995.99 995.47 994.83 994.03 993.11 992.23
1018.07 1017.89 1017.68 1017.40 1017.03 1016.51 1015.80 1015.22 1014.62 1014.20 1014.04 1013.85 1013.50 1013.00 1012.39 1011.79 1011.25 1010.67 1009.87 1008.92 1008.18 1007.53 1007.28 1006.41 1005.78 1005.22 1004.42 1003.74 1003.00 1002.13 1001.51 1000.72 999.63 998.49 998.21 996.61 996.19 995.22 994.44 993.57 992.85 992.02 991.14
1018.17 1017.98 1017.69 1017.32 1016.95 1016.35 1015.62 1014.98 1014.50 1014.30 1014.06 1013.65 1013.14 1012.55 1011.99 1011.33 1010.65 1009.71 1008.63 1007.96 1007.51 1007.43 1006.60 1005.89 1005.25 1004.50 1003.74 1002.93 1002.28 1001.47 1000.77 999.92 998.95 997.98 997.41 996.01 995.25 994.30 993.39 992.65 991.76 990.72 989.97
1018.17 1017.92 1017.56 1017.17 1016.75 1016.13 1015.51 1014.92 1014.35 1014.10 1013.72 1013.24 1012.67 1012.07 1011.51 1010.68 1009.94 1008.66 1008.11 1007.58 1007.03 1006.56 1005.78 1005.13 1004.46 1003.82 1003.16 1002.30 1001.66 1000.86 1000.07 999.46 998.17 997.14 996.46 995.71 994.38 993.45 992.55 991.32 990.29 989.58 988.89
1018.16 1017.82 1017.45 1016.95 1016.50 1016.01 1015.42 1014.84 1014.25 1013.78 1013.31 1012.68 1012.11 1011.51 1010.96 1010.09 1009.10 1008.55 1007.80 1007.24 1006.67 1005.85 1005.07 1004.34 1003.95 1003.19 1002.56 1001.80 1001.03 1000.58 999.92 998.99 997.91 996.41 995.47 995.12 993.73 993.02 991.07 990.01 989.21 988.87 987.98
Wind_Speed
3 1 2 3 3 3 4 4 4 5 6 6 6 6 6 7 6 3 3 10 13 16 18 18 18 19 19 18 19 19 17 18 20 19 19 21 23 25 26 26 26 26 27
3 4 5 5 4 4 4 4 4 5 4 5 6 6 6 5 6 6 4 5 13 14 16 18 18 17 20 20 15 14 14 16 16 19 21 22 22 21 25 27 27 27 27
7 5 5 5 4 4 5 5 5 5 5 6 6 6 6 7 6 7 5 5 6 9 15 18 18 21 21 21 21 20 19 19 19 18 19 18 16 17 19 22 25 28 29
6 6 5 4 4 5 4 4 5 5 5 5 5 5 6 5 6 7 6 5 5 5 9 16 20 20 21 21 21 21 21 21 19 19 21 19 20 19 18 18 20 22 26
6 6 5 4 5 5 5 4 3 3 3 5 6 5 6 4 3 5 7 6 6 5 5 10 14 14 17 19 21 22 22 23 21 20 21 22 21 21 21 21 19 18 21
7 6 5 5 5 4 5 4 4 3 1 4 4 7 5 2 2 6 6 6 5 6 5 5 5 7 17 24 23 24 24 22 21 21 21 21 20 21 22 23 23 22 22
7 6 5 5 5 5 3 4 3 4 3 5 2 4 4 2 4 11 5 6 7 10 6 9 6 6 6 17 21 22 22 23 21 21 21 21 22 22 23 24 25 26 23
6 6 6 5 5 4 6 5 5 3 2 4 3 2 5 6 7 12 6 6 10 7 9 11 8 6 7 4 11 20 24 20 21 21 22 24 24 25 23 26 27 27 25
7 6 6 5 5 4 4 3 4 4 2 3 6 4 5 3 11 2 8 4 14 5 10 6 9 6 6 8 8 13 19 20 24 23 24 26 25 27 27 28 29 28 29
6 6 6 6 5 3 4 3 4 2 3 4 3 4 2 4 4 8 4 11 4 11 7 5 7 5 8 7 12 15 17 25 26 25 26 27 28 30 31 30 32 32 27
6 6 6 5 4 3 3 4 5 5 3 2 2 3 2 2 4 4 12 6 10 9 8 6 5 6 7 6 5 7 25 25 25 27 29 31 32 32 32 33 33 32 34
3 5 4 4 3 4 4 4 4 5 4 3 2 3 2 3 7 6 9 11 12 8 5 6 6 7 5 4 9 21 19 24 28 31 32 32 33 33 34 34 33 33 33
2 2 2 3 3 3 5 5 5 5 4 3 4 4 2 4 3 5 7 12 12 10 8 5 5 4 5 4 4 16 23 28 30 31 32 34 34 33 32 33 33 31 33
3 1 2 3 4 5 5 5 3 4 4 4 6 5 4 4 4 4 7 10 15 12 10 8 3 4 4 2 11 21 11 23 27 30 31 33 33 33 33 32 33 32 32
2 3 3 3 4 5 5 5 4 5 5 4 6 5 3 4 4 6 7 7 9 14 14 10 9 5 4 5 11 12 12 18 28 29 31 32 32 33 33 32 33 32 29
2 3 4 4 5 5 5 5 5 6 6 4 5 5 4 4 6 7 7 7 7 10 15 11 10 9 8 8 13 14 11 23 24 30 31 32 36 36 33 35 35 33 35
2 3 4 5 6 6 6 6 6 7 6 6 5 5 6 6 7 8 8 8 8 8 11 15 11 11 11 11 13 10 11 11 11 28 33 36 35 34 34 34 35 35 34
2 4 4 5 6 6 6 6 7 7 7 7 6 5 6 7 10 9 7 10 10 10 9 15 15 11 13 13 9 11 10 12 13 22 32 32 33 34 34 34 33 32 28
4 4 5 6 6 7 7 7 6 7 7 6 6 5 6 8 10 9 10 10 8 8 9 11 14 12 13 6 9 12 13 14 12 25 28 29 31 32 32 31 28 31 33
4 5 5 6 6 7 7 7 7 7 7 6 6 6 6 8 10 11 11 9 10 11 11 11 11 13 7 11 9 12 14 11 13 12 18 23 27 28 29 33 34 32 30
4 5 6 7 6 7 6 10 9 7 6 6 6 6 7 11 21 19 12 12 14 12 10 9 13 11 9 12 12 11 14 14 13 8 13 13 10 11 14 23 25 29 29
6 5 6 6 7 7 18 20 18 10 6 6 7 7 7 14 14 22 24 28 24 16 16 12 8 12 14 13 12 12 14 8 18 10 9 14 11 13 12 12 25 31 32
5 6 6 6 7 7 19 21 22 10 8 7 8 9 9 9 16 12 20 26 23 25 19 15 14 13 15 15 13 14 15 13 13 13 13 15 11 13 12 13 28 31 32
5 5 6 7 6 7 18 21 23 7 6 7 9 9 8 10 11 18 17 14 13 10 10 10 12 14 14 15 16 14 15 15 12 12 11 15 11 14 13 12 29 32 32
4 4 5 7 6 7 16 21 18 8 8 9 7 7 9 13 20 29 18 12 12 12 16 22 22 25 28 26 23 12 10 12 13 12 12 12 12 13 13 14 14 28 28
5 5 7 6 10 7 13 20 18 7 8 8 8 8 18 20 28 25 16 13 14 15 13 12 12 14 17 16 24 13 10 12 12 13 11 10 12 11 10 10 7 9 11
Wind_Direction
118 96 45 40 23 19 41 37 29 18 10 355 350 354 342 339 332 330 309 304 312 323 325 331 329 322 302 291 289 296 292 289 284 281 278 273 265 261 258 253 253 253 249
103 82 62 43 34 35 45 40 31 19 5 356 350 344 329 331 334 330 323 334 336 342 355 4 1 2 11 3 340 328 315 302 299 303 303 295 284 276 269 263 258 256 253
79 76 71 47 24 29 38 33 20 18 18 358 347 335 333 337 336 340 351 348 344 341 359 3 14 8 12 3 357 347 348 360 355 350 342 331 316 296 285 280 272 265 260
80 76 68 48 31 36 34 35 20 6 7 359 330 320 323 337 342 356 348 350 346 355 349 1 5 5 4 360 2 352 346 341 335 341 347 343 343 330 314 299 286 277 270
73 76 64 46 43 40 31 20 12 30 6 345 319 313 311 331 359 358 347 344 341 356 344 357 351 352 356 1 351 352 345 338 330 335 334 324 323 327 323 317 312 307 296
72 76 61 52 46 48 27 18 9 343 353 325 320 308 301 313 29 9 347 346 349 355 341 333 340 337 357 353 357 349 346 342 343 341 336 335 333 329 326 323 319 314 314
70 68 59 48 40 53 36 25 346 351 328 337 340 309 317 335 43 355 356 347 360 349 350 354 346 344 343 351 349 345 344 340 332 332 328 325 321 319 319 316 311 306 316
69 71 67 53 42 40 26 23 29 340 319 12 338 329 346 330 354 325 337 344 351 347 347 341 327 336 343 335 331 344 338 339 340 328 323 317 316 314 315 313 313 310 307
68 68 64 62 49 46 30 7 11 35 348 316 13 69 350 313 322 317 313 337 338 331 327 318 314 320 338 332 336 336 325 340 330 325 323 319 315 313 308 306 299 298 299
68 65 65 58 52 38 29 349 11 12 15 12 346 30 193 247 317 321 329 317 313 316 300 299 304 313 327 315 316 319 329 328 324 324 318 315 312 307 303 301 296 297 296
67 64 62 56 47 31 12 13 6 12 21 4 9 331 322 262 241 262 302 315 308 310 304 294 297 307 309 298 312 307 326 330 325 319 314 311 309 306 302 299 298 298 294
59 50 56 53 40 21 4 353 354 6 3 357 330 323 292 303 312 303 299 303 298 294 276 298 293 302 285 303 317 332 328 320 318 315 312 309 307 307 303 298 295 291 292
57 25 46 30 16 356 360 359 355 355 344 342 320 303 272 263 268 285 301 306 301 307 295 279 264 266 285 304 334 317 319 318 311 308 307 307 303 300 303 299 294 294 284
153 134 62 28 12 5 357 356 340 329 329 315 309 305 288 291 290 287 297 304 304 301 300 298 274 259 273 274 305 305 299 295 298 301 301 304 302 300 294 295 290 288 287
123 66 39 10 359 357 346 342 331 319 313 299 302 294 298 291 291 297 292 284 288 306 301 304 301 292 276 278 285 292 286 289 298 298 301 300 298 295 293 291 289 288 286
58 35 5 357 342 335 335 338 320 309 309 301 303 318 299 300 308 306 297 292 285 286 296 304 303 299 291 293 289 294 295 294 294 292 295 296 297 290 290 291 292 290 289
52 14 346 341 334 334 325 324 309 294 295 294 295 299 300 297 310 304 296 293 287 281 282 295 298 304 298 290 294 294 291 286 278 287 292 294 292 295 293 293 292 290 286
18 353 338 331 328 321 315 307 298 301 297 297 294 304 290 310 309 303 296 293 285 282 278 288 301 301 292 292 301 291 287 291 286 287 290 293 297 295 295 291 288 283 294
354 340 337 335 326 317 310 304 292 287 286 288 287 283 283 309 308 298 290 288 287 290 294 287 292 296 293 307 302 296 294 294 288 286 292 293 294 296 293 294 293 293 299
345 342 340 329 323 314 306 293 287 291 294 284 273 273 280 288 294 293 294 302 307 301 296 290 289 297 299 307 295 303 302 295 290 288 289 290 291 293 295 299 297 294 292
353 348 346 333 324 325 323 329 321 306 291 287 283 272 266 289 310 307 307 312 304 301 292 297 295 286 308 307 304 302 293 291 294 298 292 287 284 283 283 286 284 286 283
357 352 342 328 321 328 332 336 335 325 313 295 281 279 275 295 292 306 311 306 303 306 302 299 321 302 301 301 294 289 293 317 304 295 285 294 287 285 282 277 279 285 288
347 336 330 326 316 313 336 339 339 334 325 314 304 294 300 306 310 293 290 295 300 302 316 304 305 295 295 293 294 304 299 292 290 298 295 289 290 282 280 279 286 286 286
337 324 314 310 307 314 339 344 339 341 323 302 298 295 287 289 286 301 300 312 307 307 298 294 288 293 291 301 299 302 299 291 285 286 285 285 293 284 285 281 282 282 284
321 302 296 304 312 305 336 340 338 326 313 304 294 288 295 304 303 309 324 323 310 308 304 310 309 311 308 308 308 304 299 303 296 294 293 288 289 287 285 280 274 279 281
294 303 309 311 316 314 319 332 333 316 308 302 297 292 300 309 316 331 327 332 318 307 313 318 316 309 306 297 304 302 296 292 292 294 291 291 291 293 291 281 275 281 277